This is the latest recevied weather packets stored in our database for station/object K3PPP. If no packets are shown the sender has not sent any weather packets the latest 10 day(s).
| Time | Temp. | Humidity | Pressure | Rain* | Wind** | Luminosity | Snow |
|---|---|---|---|---|---|---|---|
| 1778160111 | 8.33° C | 60% | 1013.5 hPa | 0 mm | - | 406 W/m² | - |
| 1778159809 | 8.33° C | 59% | 1013.5 hPa | 0 mm | - | 391 W/m² | - |
| 1778159506 | 9.44° C | 58% | 1013.3 hPa | 0 mm | - | 375 W/m² | - |
| 1778159202 | 8.33° C | 60% | 1013.3 hPa | 0 mm | - | 356 W/m² | - |
| 1778158901 | 8.33° C | 63% | 1013.3 hPa | 0 mm | - | 345 W/m² | - |
| 1778158599 | 7.78° C | 59% | 1013.5 hPa | 0 mm | - | 328 W/m² | - |
| 1778158297 | 8.33° C | 64% | 1013.6 hPa | 0 mm | - | 312 W/m² | - |
| 1778157992 | 8.33° C | 67% | 1013.8 hPa | 0 mm | - | 294 W/m² | - |
| 1778157690 | 7.78° C | 66% | 1013.5 hPa | 0 mm | - | 281 W/m² | - |
| 1778157388 | 7.78° C | 67% | 1013.3 hPa | 0 mm | - | 265 W/m² | - |
| 1778157085 | 7.78° C | 67% | 1013.5 hPa | 0 mm | - | 250 W/m² | - |
| 1778156780 | 7.22° C | 68% | 1013.6 hPa | 0 mm | - | 233 W/m² | - |
| 1778156476 | 7.22° C | 69% | 1013.3 hPa | 0 mm | - | 220 W/m² | - |
| 1778156172 | 7.22° C | 75% | 1013.5 hPa | 0 mm | - | 205 W/m² | - |
| 1778155868 | 6.67° C | 78% | 1013.5 hPa | 0 mm | - | 190 W/m² | - |
| 1778155564 | 6.67° C | 77% | 1013.5 hPa | 0 mm | - | 172 W/m² | - |
| 1778155261 | 6.67° C | 76% | 1013.3 hPa | 0 mm | - | 160 W/m² | - |
| 1778154958 | 6.11° C | 78% | 1013.2 hPa | 0 mm | - | 65 W/m² | - |
| 1778154654 | 6.11° C | 82% | 1013.3 hPa | 0 mm | - | 119 W/m² | - |
| 1778154350 | 5.56° C | 84% | 1013.1 hPa | 0 mm | - | 101 W/m² | - |
| 1778154047 | 5.56° C | 87% | 1013.2 hPa | 0 mm | - | 57 W/m² | - |
| 1778153744 | 5° C | 86% | 1013.2 hPa | 0 mm | - | 56 W/m² | - |
| 1778153441 | 4.44° C | 89% | 1013 hPa | 0 mm | - | 74 W/m² | - |
| 1778153139 | 5° C | 91% | 1013 hPa | 0 mm | - | 62 W/m² | - |
| 1778152835 | 4.44° C | 92% | 1013 hPa | 0 mm | - | 56 W/m² | - |
* Rain latest hour (hover to see other rain measurements)
** Current wind speed in m/s (hover to see current wind gust speed)